Location: Unspecified
(0.0000°N, 1.0000°E)
Time: 18:53:18
(UTC+02:00)

Daily predictions for brighter satellites

Satellite Brightness Start Highest point End
(mag) Time Altitude Azimuth Time Altitude Azimuth Time Altitude Azimuth
Meteor 1-24 Rocket 4.1 19:58:51 10° NNE 20:03:45 37° E 20:08:36 10° SSE
Cosmos 1048 Rocket 4.0 19:59:48 10° S 20:05:11 78° E 20:10:29 10° NNE
Meteor 1-29 4.3 20:02:43 10° NE 20:05:18 20° ESE 20:07:52 10° SSE
Cosmos 1269 Rocket 4.3 20:04:45 10° SSW 20:10:03 75° WNW 20:15:18 10° N
Cosmos 1844 Rocket 4.3 20:07:30 10° NW 20:12:43 41° WSW 20:18:00 10° S
Cosmos 1470 3.9 20:11:38 10° SSE 20:14:46 23° E 20:17:51 10° NE
Helios 1B rocket 2.7 20:11:38 10° NNE 20:15:34 45° ESE 20:19:32 10° S
CZ-2C R/B 3.2 20:13:29 10° S 20:18:32 61° WSW 20:23:26 10° NNW
Meteor 2-5 Rocket 4.2 20:13:07 10° NNW 20:18:35 67° W 20:24:05 10° S
Cosmos 1707 3.4 20:15:06 10° NNW 20:18:53 60° W 20:22:43 10° S
Cosmos 2034 Rocket 4.0 20:12:42 10° S 20:18:56 83° E 20:25:11 10° N
Cosmos 158 Rocket 3.9 20:14:10 10° S 20:19:05 56° ESE 20:23:52 10° NNE
Cosmos 921 Rocket 4.5 20:15:47 10° NNW 20:19:42 40° W 20:23:41 10° S
Cosmos-2242 3.0 20:17:38 10° S 20:21:58 89° W 20:26:18 10° N
GPS 2-05 Rocket1 4.2 20:24:48 10° NNW 20:27:27 22° NE 20:29:05 16° ENE
SJ-6B 3.7 20:27:00 10° SE 20:30:20 28° ENE 20:33:42 10° NNE
TIMED 4.5 20:26:17 10° N 20:30:35 62° ENE 20:34:54 10° SSE
ATLAS CENTAUR R/B 1.3 20:28:03 10° N 20:31:33 43° ENE 20:34:56 10° SE
Cosmos 1076 Rocket 3.8 20:30:35 10° NNE 20:34:45 46° E 20:38:56 10° SSE
Cosmos 2056 Rocket 3.5 20:29:54 10° N 20:35:14 68° ENE 20:40:31 10° SSE
Cosmos 1484 Rocket 2.7 20:34:14 10° S 20:37:59 83° WSW 20:41:47 10° NNW
Cosmos 1766 Rocket 3.9 20:34:46 10° NNE 20:38:48 40° E 20:42:52 10° SSE
Cosmos 1544 3.8 20:36:11 10° SSW 20:39:50 58° W 20:43:29 10° N
SAR-Lupe-4 3.6 20:40:27 10° SSE 20:43:56 53° ENE 20:47:24 10° N
FREGAT/IRIS 3.3 20:44:28 31° E 20:44:35 31° E 20:47:22 10° NNE
Aurora 2 Rocket 4.1 20:45:20 10° WNW 20:48:36 26° NNW 20:52:10 12° NNE
Cosmos 1842 Rocket 3.4 20:45:18 10° S 20:49:38 86° E 20:53:57 10° N
Cosmos 1437 Rocket 4.2 20:47:36 10° SSE 20:49:43 22° SE 20:49:43 22° SE
Ariane H10-3 2.4 20:50:17 10° W 20:55:16 34° NNW 20:56:03 28° NNE
Delta 2 Rocket 3.8 20:52:04 10° WNW 20:58:19 85° SSW 21:01:51 26° ESE
ARIANE 5 R/B 3.9 12:37:54 10° W 20:58:22 63° N 21:01:48 27° ENE
GPS 2-15 Rocket1 4.5 20:55:27 10° SW 20:59:31 26° SSE 21:00:43 23° SE
SeaSat 1 2.3 20:54:47 10° NNE 20:59:42 76° ESE 21:04:37 10° SSW
Meteor 1-21 Rocket 4.4 20:54:38 10° NNE 20:59:55 47° E 21:05:16 10° SSE
SL-19 R/B 4.2 20:55:38 10° SSE 21:01:14 89° W 21:06:49 10° NNW
NOAA 12 3.9 20:56:44 10° SSE 21:01:57 73° ENE 21:07:10 10° N
Tiangong 2 3.6 21:01:13 10° W 21:03:34 19° SW 21:05:48 11° S
Timation 1 Rocket 4.3 20:59:14 10° N 21:05:05 61° ENE 21:10:58 10° SSE
Delta 128 4.3 20:59:59 10° WSW 21:05:31 80° NNW 21:08:38 32° NE
Atlas Centaur 2 4.1 20:59:13 10° NNW 21:05:37 23° NNE 21:07:36 21° NE
Delta 202 4.2 21:00:11 10° WSW 21:09:21 88° NNW 21:12:12 38° ENE
Cosmos 1408 Rocket 3.9 21:05:32 10° NNW 21:09:45 62° W 21:14:01 10° S
Ariane 42L R/B 3.1 21:07:48 10° WNW 21:12:26 33° N 21:12:26 33° N
Cosmos 2251 Rocket 3.9 21:08:43 10° SSW 21:13:54 63° WNW 21:19:03 10° N
OTV 4 2.9 21:13:56 10° W 21:15:45 16° NW 21:15:45 16° NW
Cosmos 494 Rocket 4.2 21:17:29 10° SSW 21:22:42 69° WNW 21:27:46 11° N
Cosmos 2279 Rocket 4.0 21:17:42 10° S 21:23:31 53° E 21:23:31 53° E
Resurs 01 Rocket 2.4 21:27:02 41° N 21:27:02 41° N 21:29:56 10° N
NOSS 3-3 (A) 4.5 21:22:20 10° NNW 21:30:10 61° ENE 21:32:21 46° ESE
NOSS 3-3 (C) 4.5 21:22:26 10° N 21:30:16 60° ENE 21:32:20 47° ESE
ASTEX 1 3.8 21:25:33 10° N 21:30:20 60° W 21:35:09 10° SSW
Cosmos 1452 Rocket 3.5 21:26:10 10° NNW 21:31:22 81° W 21:33:34 36° S
ARIANE 5 R/B 4.3 21:34:05 10° W 21:36:47 47° WSW 21:36:47 47° WSW
COSMOS 2406 3.1 21:33:03 10° SSW 21:38:31 80° S 21:38:31 80° S
Hubble Space Telescope 3.2 21:37:02 10° WNW 21:39:31 16° NNW 21:39:31 16° NNW
Spot 2 Rocket 3.8 21:36:21 10° S 21:41:22 64° WSW 21:46:20 10° NNW
Ariane H10-3 3.2 20:51:26 10° W 21:43:43 76° N 21:45:15 60° ENE
Nadezhda 4 Rocket 4.3 21:40:20 10° NNW 21:46:25 64° W 21:52:29 10° S
Meteor 2-1 Rocket 4.5 21:44:35 10° SSW 21:50:10 66° W 21:50:28 65° WNW
Spelda 4.3 21:57:34 10° W 22:18:36 68° WNW 22:18:36 68° WNW
Centaur AC-72 4.2 22:10:19 10° WSW 22:28:48 45° S 22:28:48 45° S
ARIANE 5 R/B 4.1 14:18:46 10° W 22:46:46 50° WSW 22:46:46 50° WSW
H-2A R/B 4.4 22:17:50 10° WNW 22:55:23 44° SW 22:55:28 44° SW
